[[{"header":{"parameterUnit":"m.s-1","parameterCategory":1,"la1":30.2991,"la2":30.254,"lo1":-89.0895,"lo2":-89.0444,"dy":0.0017,"dx":0.0017,"nx":28,"ny":28,"refTime":"2024-12-05T09:00:00:Z","depth":0,"parameterNumber":2,"parameterNumberName":"U-component_of_WINDS"},"data":[0,0,0,0,0,0,0,0,0,0,0,0,0,0,0,0,0,0,0,0,0,0,0,0,0,0,0,0,0,0,0,0,0,0,0,0,0,0,0,0,0,0,0,0,0,0,0,0,0,0,0,0,0,0,0,0,0,0,-0.9581,-0.9581,0,-0.9617,-0.9617,-0.9618,-0.9586,-0.9584,-0.9583,-0.9582,-0.9621,-0.9623,-0.9625,0,0,0,0,0,0,0,0,0,0,0,0,0,-0.9484,-0.9486,-0.9581,-0.9581,-0.9582,-0.9617,-0.9617,-0.9618,-0.9586,-0.9584,-0.9583,-0.9581,-0.962,-0.9622,-0.9625,0,0,0,0,0,0,0,0,0,0,0,0,0,-0.9524,-0.9487,-0.9581,-0.957,-0.9569,-0.9617,-0.9617,-0.9618,-0.9586,-0.9584,-0.9582,-0.9581,-0.9619,-0.9622,-0.9626,-0.9686,0,0,-0.9636,-0.9637,0,0,0,0,0,0,0,0,-0.9522,-0.9528,-0.9571,-0.9571,-0.957,-0.9595,-0.9598,-0.9641,-0.9587,-0.958,-0.9582,-0.958,-0.9614,-0.9617,-0.9629,-0.9688,-0.9689,-0.9636,-0.9638,-0.964,-0.9641,0,0,0,0,0,0,0,-0.9519,-0.9526,-0.9595,-0.9572,-0.9571,-0.9563,-0.9567,-0.9606,-0.9608,-0.958,-0.9578,-0.9583,-0.9613,-0.9625,-0.9629,-0.969,-0.9636,-0.9639,-0.9641,-0.9643,-0.9801,-0.9803,0,0,0,0,0,0,-0.9517,-0.9524,-0.9594,-0.9596,-0.9541,-0.9567,-0.9571,-0.9589,-0.9607,-0.9608,-0.9584,-0.9581,-0.9621,-0.9625,-0.963,-0.9703,-0.964,-0.9643,-0.9645,-0.9798,-0.9801,-0.9803,0,0,0,0,0,0,-0.9515,-0.9524,-0.9592,-0.9559,-0.9567,-0.9571,-0.9591,-0.9591,-0.9603,-0.961,-0.961,-0.9597,-0.9619,-0.9626,-0.9672,-0.9704,-0.9644,-0.9647,-0.9796,-0.9799,-0.9802,-0.9848,0,0,0,0,0,0,-0.9513,-0.9523,-0.9546,-0.956,-0.9569,-0.9634,-0.9593,-0.9593,-0.9609,-0.9605,-0.9622,-0.9623,-0.9618,-0.9667,-0.9676,-0.9708,-0.965,-0.9793,-0.9797,-0.9801,-0.9844,-0.9853,-0.986,0,0,0,0,0,-0.9509,-0.9558,-0.9548,-0.9556,-0.9598,-0.9636,-0.9641,-0.9635,-0.9611,-0.9635,-0.9639,-0.9622,-0.9699,-0.9673,-0.9682,-0.9715,-0.9791,-0.9796,-0.9801,-0.9841,-0.9851,-0.986,0,0,0,0,0,0,-0.9549,-0.956,-0.9548,-0.9603,-0.9619,-0.963,-0.966,-0.9646,-0.9669,-0.9664,-0.9656,-0.966,-0.9709,-0.9716,-0.9687,-0.9774,-0.9741,-0.9748,-0.9768,-0.9778,-0.9786,-0.9785,-0.9653,0,0,0,0,0,-0.9564,-0.9593,-0.9601,-0.9648,-0.9657,-0.9657,-0.9673,-0.9666,-0.9682,-0.9689,-0.9697,-0.9713,-0.9741,-0.976,-0.9786,-0.9844,-0.9848,-0.9871,-0.9879,-0.9886,-0.9893,-0.9925,-0.9936,-0.9819,-0.9819,-0.9819,0,0,-0.9595,-0.9605,-0.9624,-0.9657,-0.9668,-0.9699,-0.9663,-0.9697,-0.972,-0.9694,-0.9739,-0.9745,-0.9763,-0.9816,-0.984,-0.9823,-0.9925,-0.9892,-0.9897,-0.9901,-0.9931,-0.9942,-0.9952,-0.9823,-0.9822,-0.9822,0,0,-0.9669,-0.9679,-0.972,-0.9731,-0.9748,-0.9748,-0.9758,-0.9771,-0.9774,-0.9818,-0.98,-0.9827,-0.9875,-0.9888,-0.9902,-0.9979,-0.9964,-0.9987,-1.003,-1.0062,-1.0071,-1.0079,-1.0108,-1.0118,-0.9993,-0.9993,-0.9994,0,-0.9707,-0.9752,-0.9742,-0.9778,-0.9793,-0.977,-0.9812,-0.9823,-0.9849,-0.986,-0.9841,-0.99,-0.991,-0.9966,-0.9985,-0.9996,-1.0007,-0.9986,-1.007,-1.0078,-1.0086,-1.0113,-1.0124,-0.9996,-0.9996,-0.9996,-0.9995,0,-0.9798,-0.9829,-0.986,-0.9885,-0.9903,-0.9941,-0.9938,-0.9957,-0.9948,-0.995,-0.9995,-1.0006,-1.0034,-1.0047,-1.0039,-1.0102,-1.0091,-1.0071,-1.0038,-1.01,-1.0125,-1.0136,-1.0,-0.9999,-0.9998,-0.9998,0,0,-0.99,-0.9917,-0.9929,-0.9939,-0.9956,-0.9981,-1.0017,-1.0044,-1.0062,-1.0079,-1.011,-1.0151,-1.0132,-1.0147,-1.014,-1.0167,-1.0229,-1.0144,-1.0144,-1.0161,-1.03,-1.0317,-1.0329,-1.0218,-1.022,-1.0222,-1.0299,0,-0.9975,-1.004,-1.0031,-1.0093,-1.0123,-1.0101,-1.0133,-1.0147,-1.0148,-1.0174,-1.0176,-1.0205,-1.0178,-1.0187,-1.0212,-1.0216,-1.0257,-1.021,-1.0249,-1.025,-1.0247,-1.0342,-1.036,-1.0432,-1.0309,-1.0311,-1.0312,0,-1.0073,-1.0093,-1.0158,-1.017,-1.0182,-1.0211,-1.0235,-1.0259,-1.0274,-1.0273,-1.0289,-1.0277,-1.0314,-1.0279,-1.0331,-1.0299,-1.0313,-1.0318,-1.032,-1.0326,-1.0287,-1.0352,-1.0455,-1.0467,-1.0327,-1.0326,-1.0325,0,-1.0143,-1.0186,-1.0231,-1.024,-1.0255,-1.0276,-1.0283,-1.0295,-1.0312,-1.0332,-1.0343,-1.0367,-1.0381,-1.0401,-1.0396,-1.037,-1.0449,-1.0413,-1.0451,-1.0451,-1.047,-1.047,-1.058,-1.0476,-1.0476,-1.0476,-1.0476,0,-1.0229,-1.027,-1.0262,-1.029,-1.0335,-1.0324,-1.037,-1.0374,-1.0385,-1.0413,-1.0395,-1.0422,-1.0412,-1.0439,-1.0435,-1.0479,-1.0485,-1.0486,-1.0485,-1.0489,-1.0489,-1.0501,-1.0496,-1.0479,-1.0478,-1.0478,-1.0477,0,-1.0316,-1.0312,-1.036,-1.0369,-1.0372,-1.0405,-1.0413,-1.0439,-1.0438,-1.0474,-1.0482,-1.0482,-1.0512,-1.0508,-1.0541,-1.0539,-1.0594,-1.0586,-1.0589,-1.0588,-1.0627,-1.0624,-1.075,-1.0767,-1.065,-1.0652,-1.0652,0,-1.0373,-1.0404,-1.0416,-1.0433,-1.0442,-1.047,-1.0486,-1.0476,-1.0494,-1.0513,-1.0537,-1.0565,-1.0587,-1.0636,-1.0639,-1.0665,-1.0658,-1.07,-1.0662,-1.0665,-1.0661,-1.066,-1.0664,-1.0709,-1.071,-1.0711,-1.0712,0,-1.0474,-1.047,-1.0495,-1.0518,-1.0538,-1.0556,-1.0573,-1.0588,-1.0579,-1.06,-1.0631,-1.0648,-1.0682,-1.071,-1.0734,-1.0741,-1.0726,-1.0724,-1.0734,-1.074,-1.0742,-1.0743,-1.0612,-1.0722,-1.0721,-1.072,-1.072,-1.0719,-1.0549,-1.0576,-1.0588,-1.0616,-1.0627,-1.0642,-1.0667,-1.0669,-1.0694,-1.0721,-1.0713,-1.0748,-1.0761,-1.0791,-1.0801,-1.0828,-1.0812,-1.0827,-1.0831,-1.0836,-1.0841,-1.0735,-1.0832,-1.0831,-1.0831,-1.0831,-1.0831,0,-1.0651,-1.0658,-1.0683,-1.0706,-1.0728,-1.0709,-1.0726,-1.0746,-1.0776,-1.079,-1.0812,-1.0846,-1.0874,-1.0878,-1.0904,-1.0925,-1.0918,-1.0932,-1.0932,-1.0934,-1.0852,-1.0842,-1.0937,-1.0937,-1.0937,-1.0937,-1.0937,-1.0937,-1.0707,-1.0752,-1.0749,-1.0798,-1.0804,-1.0838,-1.0849,-1.0863,-1.0874,-1.0914,-1.0936,-1.0938,-1.0948,-1.0974,-1.0998,-1.0999,-1.101,-1.1027,-1.1025,-1.095,-1.0939,-1.0929,-1.0919,-1.1029,-1.1029,-1.1104,-1.1105,-1.1106]},{"header":{"parameterUnit":"m.s-1","parameterCategory":1,"la1":30.2991,"la2":30.254,"lo1":-89.0895,"lo2":-89.0444,"dy":0.0017,"dx":0.0017,"nx":28,"ny":28,"refTime":"2024-12-05T09:00:00:Z","depth":0,"parameterNumber":3,"parameterNumberName":"V-component_of_WINDS"},"data":[0,0,0,0,0,0,0,0,0,0,0,0,0,0,0,0,0,0,0,0,0,0,0,0,0,0,0,0,0,0,0,0,0,0,0,0,0,0,0,0,0,0,0,0,0,0,0,0,0,0,0,0,0,0,0,0,0,0,-7.2211,-7.2212,0,-7.2269,-7.2269,-7.227,-7.2176,-7.2173,-7.217,-7.2167,-7.222,-7.2224,-7.2228,0,0,0,0,0,0,0,0,0,0,0,0,0,-7.2015,-7.2019,-7.2211,-7.2212,-7.2213,-7.2269,-7.2269,-7.227,-7.2177,-7.2173,-7.2169,-7.2166,-7.2218,-7.2223,-7.2229,0,0,0,0,0,0,0,0,0,0,0,0,0,-7.2089,-7.202,-7.2211,-7.2173,-7.217,-7.2268,-7.2269,-7.227,-7.2178,-7.2173,-7.2168,-7.2164,-7.2217,-7.2223,-7.2229,-7.2366,0,0,-7.2249,-7.2252,0,0,0,0,0,0,0,0,-7.2085,-7.2096,-7.2178,-7.2176,-7.2173,-7.2211,-7.2219,-7.2302,-7.2179,-7.2175,-7.2167,-7.2161,-7.222,-7.2226,-7.2247,-7.2368,-7.237,-7.225,-7.2254,-7.2257,-7.2259,0,0,0,0,0,0,0,-7.208,-7.2093,-7.2234,-7.2179,-7.2176,-7.2151,-7.2156,-7.2234,-7.2223,-7.2175,-7.2168,-7.2176,-7.2218,-7.2241,-7.2248,-7.2371,-7.225,-7.2256,-7.226,-7.2262,-7.2606,-7.2611,0,0,0,0,0,0,-7.208,-7.2089,-7.2232,-7.2235,-7.2116,-7.2159,-7.2164,-7.2203,-7.2222,-7.2221,-7.2181,-7.2172,-7.2232,-7.224,-7.2249,-7.241,-7.2257,-7.2263,-7.2267,-7.26,-7.2607,-7.2612,0,0,0,0,0,0,-7.2076,-7.2094,-7.223,-7.2161,-7.2176,-7.2167,-7.2211,-7.2207,-7.223,-7.2227,-7.2224,-7.2207,-7.2229,-7.224,-7.2338,-7.241,-7.2266,-7.2272,-7.2594,-7.2602,-7.261,-7.2732,0,0,0,0,0,0,-7.2071,-7.2093,-7.2146,-7.2163,-7.218,-7.2319,-7.2216,-7.2211,-7.2242,-7.2232,-7.2251,-7.2249,-7.2226,-7.2328,-7.2344,-7.2417,-7.2277,-7.2588,-7.2598,-7.2607,-7.2721,-7.2743,-7.2761,0,0,0,0,0,-7.2064,-7.2177,-7.2149,-7.2167,-7.2247,-7.2324,-7.2333,-7.2306,-7.2249,-7.2301,-7.2299,-7.2248,-7.24,-7.2339,-7.2356,-7.2432,-7.2583,-7.2595,-7.2606,-7.2712,-7.2739,-7.2761,0,0,0,0,0,0,-7.2167,-7.2178,-7.2148,-7.227,-7.2297,-7.2308,-7.2373,-7.2335,-7.2377,-7.2365,-7.2328,-7.2333,-7.2438,-7.2444,-7.2376,-7.2564,-7.2481,-7.2497,-7.2556,-7.2581,-7.2601,-7.2597,-7.2282,0,0,0,0,0,-7.2204,-7.2268,-7.2273,-7.238,-7.2395,-7.2382,-7.2415,-7.2392,-7.2417,-7.2427,-7.2432,-7.2457,-7.251,-7.2546,-7.2595,-7.2722,-7.2724,-7.2782,-7.2802,-7.2818,-7.2832,-7.29,-7.2925,-7.2651,-7.2651,-7.265,0,0,-7.228,-7.2295,-7.2337,-7.2401,-7.2419,-7.2484,-7.2392,-7.2465,-7.2512,-7.2438,-7.2531,-7.2535,-7.2561,-7.2674,-7.2724,-7.2682,-7.2909,-7.2833,-7.2847,-7.2851,-7.2914,-7.294,-7.2963,-7.2659,-7.2657,-7.2656,0,0,-7.2453,-7.2471,-7.2562,-7.2583,-7.2612,-7.2603,-7.2625,-7.2642,-7.2643,-7.2736,-7.2682,-7.2736,-7.2829,-7.2849,-7.2871,-7.3053,-7.3008,-7.3069,-7.3174,-7.324,-7.3261,-7.328,-7.3345,-7.3368,-7.3083,-7.3083,-7.3084,0,-7.2544,-7.2642,-7.2613,-7.269,-7.2719,-7.2657,-7.2748,-7.2768,-7.2812,-7.2833,-7.2786,-7.2901,-7.2913,-7.303,-7.3075,-7.3095,-7.3118,-7.3067,-7.3261,-7.328,-7.3297,-7.3358,-7.3382,-7.3091,-7.309,-7.3089,-7.3088,0,-7.2752,-7.282,-7.289,-7.2936,-7.2973,-7.3056,-7.3038,-7.3079,-7.3052,-7.3047,-7.3143,-7.3156,-7.3206,-7.3232,-7.3206,-7.3345,-7.3319,-7.3267,-7.3184,-7.3331,-7.3387,-7.3411,-7.3101,-7.3098,-7.3096,-7.3095,0,0,-7.299,-7.302,-7.3046,-7.3066,-7.3095,-7.3146,-7.3226,-7.3277,-7.3312,-7.3344,-7.3409,-7.3489,-7.3442,-7.3467,-7.3443,-7.3501,-7.3644,-7.3442,-7.3442,-7.3479,-7.3797,-7.3836,-7.3863,-7.3614,-7.3618,-7.3622,-7.3795,0,-7.3162,-7.3303,-7.3279,-7.3415,-7.3477,-7.3419,-7.3489,-7.3513,-7.351,-7.3561,-7.3556,-7.3614,-7.3547,-7.3563,-7.3617,-7.3615,-7.3707,-7.3602,-7.3673,-7.3676,-7.3669,-7.3893,-7.3934,-7.4097,-7.3817,-7.3821,-7.3823,0,-7.3382,-7.3425,-7.3567,-7.3586,-7.3611,-7.3675,-7.3719,-7.3769,-7.3795,-7.3788,-7.3818,-7.3783,-7.386,-7.3776,-7.3882,-7.3811,-7.3838,-7.3841,-7.3847,-7.3852,-7.3759,-7.3904,-7.4148,-7.4173,-7.3858,-7.3855,-7.3853,0,-7.3542,-7.3634,-7.3732,-7.375,-7.3775,-7.3821,-7.3832,-7.3853,-7.3886,-7.3924,-7.3944,-7.3991,-7.4016,-7.4052,-7.403,-7.3971,-7.4139,-7.4053,-7.4135,-7.4136,-7.4173,-7.4171,-7.4425,-7.4192,-7.4191,-7.4191,-7.419,0,-7.3736,-7.3826,-7.3804,-7.3864,-7.3962,-7.3933,-7.403,-7.4034,-7.4053,-7.4111,-7.4063,-7.4118,-7.4086,-7.4138,-7.4121,-7.4211,-7.4222,-7.4218,-7.4213,-7.4223,-7.4223,-7.424,-7.4228,-7.4197,-7.4196,-7.4194,-7.4193,0,-7.3931,-7.392,-7.4023,-7.4038,-7.4044,-7.4116,-7.4127,-7.4182,-7.4176,-7.4251,-7.4266,-7.4256,-7.4315,-7.4297,-7.4359,-7.4348,-7.4462,-7.4442,-7.4454,-7.4449,-7.4532,-7.4525,-7.4806,-7.4841,-7.4585,-7.4588,-7.459,0,-7.4056,-7.4124,-7.4148,-7.4184,-7.4201,-7.426,-7.4294,-7.4267,-7.4303,-7.4338,-7.4388,-7.4443,-7.4486,-7.4582,-7.4579,-7.4627,-7.4607,-7.4702,-7.4614,-7.4622,-7.4608,-7.4605,-7.4611,-7.472,-7.4723,-7.4725,-7.4727,0,-7.4279,-7.4271,-7.4322,-7.4372,-7.4414,-7.4451,-7.4484,-7.4516,-7.4492,-7.4535,-7.4596,-7.4629,-7.4694,-7.4749,-7.4792,-7.4801,-7.4761,-7.4755,-7.4777,-7.4788,-7.4792,-7.4791,-7.4502,-7.4749,-7.4747,-7.4745,-7.4744,-7.4743,-7.4443,-7.4501,-7.4527,-7.4585,-7.4608,-7.4639,-7.4692,-7.4693,-7.4745,-7.4797,-7.4777,-7.4847,-7.487,-7.4924,-7.4939,-7.4992,-7.4955,-7.4987,-7.4994,-7.5003,-7.5013,-7.4785,-7.5,-7.4999,-7.4999,-7.4998,-7.4998,0,-7.4663,-7.4678,-7.4732,-7.478,-7.4826,-7.4786,-7.482,-7.486,-7.4923,-7.4948,-7.4992,-7.5062,-7.5115,-7.5117,-7.5165,-7.5207,-7.519,-7.5221,-7.5218,-7.522,-7.5043,-7.502,-7.5235,-7.5235,-7.5235,-7.5235,-7.5235,-7.5234,-7.4783,-7.4879,-7.4874,-7.4979,-7.4992,-7.5062,-7.5085,-7.5113,-7.5134,-7.5214,-7.5259,-7.5261,-7.5276,-7.5326,-7.5372,-7.5371,-7.5391,-7.543,-7.5422,-7.5256,-7.5233,-7.521,-7.5188,-7.5435,-7.5435,-7.5594,-7.5596,-7.5597]}]]